SR1WXZ Weather Reports


time (UTC)temp
F
wind
direction
speed
knots
gust
knots
rain 1hr
in
rain 24hr
in
rain mn
in
humidity
%
barometer
mb
20260507051545 46 10 6.1 0.0 0.00 0.00 0.00 81 1012.0
20260507050839 45 10 6.1 0.0 0.00 0.00 0.00 86 1012.0
20260507050044 45 10 6.1 0.0 0.00 0.00 0.00 86 1012.0
20260507044842 45 10 6.1 0.0 0.00 0.00 0.00 86 1012.0
20260507044544 45 10 6.1 0.0 0.00 0.00 0.00 86 1012.0
20260507043043 46 20 5.2 0.0 0.00 0.00 0.00 87 1011.0
20260507042841 46 20 5.2 0.0 0.00 0.00 0.00 87 1011.0
20260507041546 46 20 5.2 0.0 0.00 0.00 0.00 87 1011.0
20260507040839 46 30 6.1 0.0 0.00 0.00 0.00 87 1011.0
20260507040045 46 30 6.1 0.0 0.00 0.00 0.00 87 1011.0
20260507034842 46 30 6.1 0.0 0.00 0.00 0.00 87 1011.0
20260507034544 46 30 6.1 0.0 0.00 0.00 0.00 87 1011.0
20260507033044 46 20 6.1 0.0 0.00 0.00 0.00 87 1011.0
20260507032841 46 20 6.1 0.0 0.00 0.00 0.00 87 1011.0
20260507031547 46 20 6.1 0.0 0.00 0.00 0.00 87 1011.0
20260507030839 46 30 6.1 0.0 0.00 0.00 0.00 81 1011.0
20260507030043 46 30 6.1 0.0 0.00 0.00 0.00 81 1011.0
20260507024842 46 30 6.1 0.0 0.00 0.00 0.00 81 1011.0
20260507024544 46 30 6.1 0.0 0.00 0.00 0.00 81 1011.0
20260507023043 46 30 6.1 0.0 0.00 0.00 0.00 87 1011.0
20260507022840 46 30 6.1 0.0 0.00 0.00 0.00 87 1011.0
20260507021546 46 30 6.1 0.0 0.00 0.00 0.00 87 1011.0
20260507020839 46 40 5.2 0.0 0.00 0.00 0.00 87 1011.0
20260507020044 46 40 5.2 0.0 0.00 0.00 0.00 87 1011.0
20260507014842 46 40 5.2 0.0 0.00 0.00 0.00 87 1011.0
20260507014545 46 40 5.2 0.0 0.00 0.00 0.00 87 1011.0
20260507013043 46 30 6.1 0.0 0.00 0.00 0.00 87 1010.0
20260507012840 46 30 6.1 0.0 0.00 0.00 0.00 87 1010.0
20260507011545 46 30 6.1 0.0 0.00 0.00 0.00 87 1010.0
20260507010839 46 30 6.1 0.0 0.00 0.00 0.00 87 1010.0
20260507010044 46 30 6.1 0.0 0.00 0.00 0.00 87 1010.0
20260507004841 46 30 6.1 0.0 0.00 0.00 0.00 87 1010.0
20260507004544 46 30 6.1 0.0 0.00 0.00 0.00 87 1010.0
20260507003043 45 10 5.2 0.0 0.00 0.00 0.00 93 1010.0
20260507002839 45 10 5.2 0.0 0.00 0.00 0.00 93 1010.0
20260507001546 45 10 5.2 0.0 0.00 0.00 0.00 93 1010.0
20260507000838 46 40 4.3 0.0 0.00 0.00 0.00 87 1010.0
20260507000043 46 40 4.3 0.0 0.00 0.00 0.00 87 1010.0
20260506234842 46 40 4.3 0.0 0.00 0.00 0.00 87 1010.0
20260506234550 46 40 4.3 0.0 0.00 0.00 0.00 87 1010.0
20260506233043 46 20 6.1 0.0 0.00 0.00 0.00 87 1010.0
20260506232840 46 20 6.1 0.0 0.00 0.00 0.00 87 1010.0
20260506231546 46 20 6.1 0.0 0.00 0.00 0.00 87 1010.0
20260506230839 46 20 5.2 0.0 0.00 0.00 0.00 87 1010.0
20260506230043 46 20 5.2 0.0 0.00 0.00 0.00 87 1010.0
20260506224843 46 20 5.2 0.0 0.00 0.00 0.00 87 1010.0
20260506224544 46 20 5.2 0.0 0.00 0.00 0.00 87 1010.0
20260506223042 46 20 6.1 0.0 0.00 0.00 0.00 87 1010.0
20260506222841 46 20 6.1 0.0 0.00 0.00 0.00 87 1010.0
20260506221556 46 20 6.1 0.0 0.00 0.00 0.00 87 1010.0
20260506220840 46 20 7.0 0.0 0.00 0.00 0.00 87 1010.0
20260506220043 46 20 7.0 0.0 0.00 0.00 0.00 87 1010.0
20260506214848 46 20 7.0 0.0 0.00 0.00 0.00 87 1010.0
20260506214544 46 20 7.0 0.0 0.00 0.00 0.00 87 1010.0
20260506213042 46 360 6.1 0.0 0.00 0.00 0.00 87 1010.0
20260506212846 46 360 6.1 0.0 0.00 0.00 0.00 87 1010.0
20260506211545 46 360 6.1 0.0 0.00 0.00 0.00 87 1010.0
20260506210845 46 20 5.2 0.0 0.00 0.00 0.00 87 1009.0
20260506210044 46 20 5.2 0.0 0.00 0.00 0.00 87 1009.0
20260506204840 46 20 5.2 0.0 0.00 0.00 0.00 87 1009.0
20260506204544 46 20 5.2 0.0 0.00 0.00 0.00 87 1009.0
20260506203043 45 360 6.1 0.0 0.00 0.00 0.00 93 1009.0
20260506202839 45 360 6.1 0.0 0.00 0.00 0.00 93 1009.0
20260506201545 45 360 6.1 0.0 0.00 0.00 0.00 93 1009.0
20260506200837 46 360 6.1 0.0 0.00 0.00 0.00 87 1009.0
20260506200043 46 360 6.1 0.0 0.00 0.00 0.00 87 1009.0
20260506194840 46 360 6.1 0.0 0.00 0.00 0.00 87 1009.0
20260506194544 46 360 6.1 0.0 0.00 0.00 0.00 87 1009.0
20260506193042 46 360 6.1 0.0 0.00 0.00 0.00 87 1009.0
20260506192838 46 360 6.1 0.0 0.00 0.00 0.00 87 1009.0
20260506191545 46 360 6.1 0.0 0.00 0.00 0.00 87 1009.0
20260506190837 46 10 6.1 0.0 0.00 0.00 0.00 87 1008.0
20260506190044 46 10 6.1 0.0 0.00 0.00 0.00 87 1008.0
20260506184841 46 10 6.1 0.0 0.00 0.00 0.00 87 1008.0
20260506184544 46 10 6.1 0.0 0.00 0.00 0.00 87 1008.0
20260506183042 46 10 6.1 0.0 0.00 0.00 0.00 93 1008.0
20260506182839 46 10 6.1 0.0 0.00 0.00 0.00 93 1008.0
20260506181546 46 10 6.1 0.0 0.00 0.00 0.00 93 1008.0
20260506180837 46 10 6.1 0.0 0.00 0.00 0.00 93 1008.0
20260506180044 46 10 6.1 0.0 0.00 0.00 0.00 93 1008.0
20260506174841 46 10 6.1 0.0 0.00 0.00 0.00 93 1008.0
20260506174544 46 10 6.1 0.0 0.00 0.00 0.00 93 1008.0
20260506173042 48 20 7.0 0.0 0.00 0.00 0.00 87 1008.0
20260506172839 48 20 7.0 0.0 0.00 0.00 0.00 87 1008.0
20260506171546 48 20 7.0 0.0 0.00 0.00 0.00 87 1008.0
20260506170837 50 360 5.2 0.0 0.00 0.00 0.00 93 1007.0
20260506170042 50 360 5.2 0.0 0.00 0.00 0.00 93 1007.0
20260506164841 50 360 5.2 0.0 0.00 0.00 0.00 93 1007.0
20260506164544 50 360 5.2 0.0 0.00 0.00 0.00 93 1007.0
20260506163042 50 20 7.0 0.0 0.00 0.00 0.00 93 1007.0
20260506162839 50 20 7.0 0.0 0.00 0.00 0.00 93 1007.0
20260506161545 50 20 7.0 0.0 0.00 0.00 0.00 93 1007.0
20260506160838 50 360 6.1 0.0 0.00 0.00 0.00 93 1007.0
20260506160044 50 360 6.1 0.0 0.00 0.00 0.00 93 1007.0
20260506154841 50 360 6.1 0.0 0.00 0.00 0.00 93 1007.0
20260506154543 50 360 6.1 0.0 0.00 0.00 0.00 93 1007.0
20260506153042 50 350 6.1 0.0 0.00 0.00 0.00 93 1007.0
20260506152840 50 350 6.1 0.0 0.00 0.00 0.00 93 1007.0
20260506151545 50 350 6.1 0.0 0.00 0.00 0.00 93 1007.0
20260506150838 50 360 6.1 0.0 0.00 0.00 0.00 93 1007.0
20260506150042 50 360 6.1 0.0 0.00 0.00 0.00 93 1007.0
20260506144847 50 360 6.1 0.0 0.00 0.00 0.00 93 1007.0
20260506144543 50 360 6.1 0.0 0.00 0.00 0.00 93 1007.0
20260506143042 50 360 6.1 0.0 0.00 0.00 0.00 100 1007.0
20260506142846 50 360 6.1 0.0 0.00 0.00 0.00 100 1007.0
20260506141545 50 360 6.1 0.0 0.00 0.00 0.00 100 1007.0
20260506140844 50 360 5.2 0.0 0.00 0.00 0.00 93 1007.0
20260506140042 50 360 5.2 0.0 0.00 0.00 0.00 93 1007.0
20260506134840 50 360 5.2 0.0 0.00 0.00 0.00 93 1007.0
20260506134544 50 360 5.2 0.0 0.00 0.00 0.00 93 1007.0
20260506133042 50 10 5.2 0.0 0.00 0.00 0.00 93 1007.0
20260506132839 50 10 5.2 0.0 0.00 0.00 0.00 93 1007.0
20260506131545 50 10 5.2 0.0 0.00 0.00 0.00 93 1007.0
20260506130837 50 360 6.1 0.0 0.00 0.00 0.00 93 1007.0
20260506130043 50 360 6.1 0.0 0.00 0.00 0.00 93 1007.0
20260506124840 50 360 6.1 0.0 0.00 0.00 0.00 93 1007.0
20260506124544 50 360 6.1 0.0 0.00 0.00 0.00 93 1007.0
20260506123042 48 10 7.0 0.0 0.00 0.00 0.00 100 1006.0
20260506122839 48 10 7.0 0.0 0.00 0.00 0.00 100 1006.0
20260506121545 48 10 7.0 0.0 0.00 0.00 0.00 100 1006.0
20260506120837 48 10 6.1 0.0 0.00 0.00 0.00 100 1007.0
20260506120042 48 10 6.1 0.0 0.00 0.00 0.00 100 1007.0
20260506114841 48 10 6.1 0.0 0.00 0.00 0.00 100 1007.0
20260506114544 48 10 6.1 0.0 0.00 0.00 0.00 100 1007.0
20260506113043 48 10 7.0 0.0 0.00 0.00 0.00 100 1006.0
20260506112840 48 10 7.0 0.0 0.00 0.00 0.00 100 1006.0
20260506111544 48 10 7.0 0.0 0.00 0.00 0.00 100 1006.0
20260506110838 50 360 7.8 0.0 0.00 0.00 0.00 93 1006.0
20260506110042 50 360 7.8 0.0 0.00 0.00 0.00 93 1006.0
20260506104840 50 360 7.8 0.0 0.00 0.00 0.00 93 1006.0
20260506104543 50 360 7.8 0.0 0.00 0.00 0.00 93 1006.0
20260506103042 50 10 5.2 0.0 0.00 0.00 0.00 93 1006.0
20260506102838 50 10 5.2 0.0 0.00 0.00 0.00 93 1006.0
20260506101545 50 10 5.2 0.0 0.00 0.00 0.00 93 1006.0
20260506100837 50 20 6.1 0.0 0.00 0.00 0.00 93 1006.0
20260506100043 50 20 6.1 0.0 0.00 0.00 0.00 93 1006.0
20260506094841 50 20 6.1 0.0 0.00 0.00 0.00 93 1006.0
20260506094545 50 20 6.1 0.0 0.00 0.00 0.00 93 1006.0
20260506093042 50 10 7.8 0.0 0.00 0.00 0.00 93 1006.0
20260506092840 50 10 7.8 0.0 0.00 0.00 0.00 93 1006.0
20260506091544 50 10 7.8 0.0 0.00 0.00 0.00 93 1006.0
20260506090838 50 20 7.0 0.0 0.00 0.00 0.00 100 1006.0
20260506090044 50 20 7.0 0.0 0.00 0.00 0.00 100 1006.0
20260506084841 50 20 7.0 0.0 0.00 0.00 0.00 100 1006.0
20260506084544 50 20 7.0 0.0 0.00 0.00 0.00 100 1006.0
20260506083042 50 20 7.0 0.0 0.00 0.00 0.00 100 1006.0
20260506082840 50 20 7.0 0.0 0.00 0.00 0.00 100 1006.0
20260506081544 50 20 7.0 0.0 0.00 0.00 0.00 100 1006.0
20260506080838 50 20 7.0 0.0 0.00 0.00 0.00 100 1006.0
20260506073042 50 20 7.0 0.0 0.00 0.00 0.00 100 1006.0
20260506072840 50 20 7.0 0.0 0.00 0.00 0.00 100 1006.0
20260506071544 50 20 7.0 0.0 0.00 0.00 0.00 100 1006.0
20260506070838 50 20 6.1 0.0 0.00 0.00 0.00 100 1006.0
20260506061544 50 20 6.1 0.0 0.00 0.00 0.00 100 1006.0
20260506060838 50 20 5.2 0.0 0.00 0.00 0.00 100 1006.0